Location: Echo Hill Outdoor School
(39.3621°N, 76.1137°W)
Time: 19:07:16
(UTC-05:00)

Tiangong 1 - Visible Passes

Search period start: 24 November 2017 00:00
Search period end: 04 December 2017 00:00
Orbit: 283 x 307 km, 42.8° (Epoch: 24 November)

Date Brightness Start Highest point End Pass type
(mag) Time Alt. Az. Time Alt. Az. Time Alt. Az.
24 Nov 2.5 17:42:37 10° SSW 17:44:32 18° SSE 17:45:29 15° ESE visible
25 Nov 1.4 17:48:25 10° SW 17:50:50 37° SSE 17:51:44 26° ESE visible
26 Nov 0.5 17:54:30 10° WSW 17:57:05 75° SSE 17:57:47 42° E visible
27 Nov 0.7 18:00:42 10° W 18:03:16 61° NNW 18:03:41 50° NNE visible
28 Nov 1.2 18:06:52 10° W 18:09:21 42° N 18:09:25 42° N visible
29 Nov 1.7 18:12:55 10° WNW 18:15:01 34° NNW 18:15:01 34° NNW visible
30 Nov 2.2 18:18:47 10° WNW 18:20:29 28° NW 18:20:29 28° NW visible
01 Dec 2.4 18:24:26 10° WNW 18:25:52 26° NW 18:25:52 26° NW visible
02 Dec 2.7 18:29:55 10° WNW 18:31:11 25° WNW 18:31:11 25° WNW visible
03 Dec 2.9 18:35:16 10° WNW 18:36:27 24° WNW 18:36:27 24° WNW visible
